Location: Colle San Luigi
(43.5500°N, 13.4167°E)
Time: 07:45:05
(UTC+00:00)

STARLINK-1205 - Visible Passes

Search period start: 11 August 2020 00:00
Search period end: 21 August 2020 00:00
Orbit: 549 x 550 km, 53.0° (Epoch: 11 August)

Date Brightness Start Highest point End Pass type
(mag) Time Alt. Az. Time Alt. Az. Time Alt. Az.
11 Aug 5.8 18:48:00 10° NW 18:51:15 22° N 18:54:30 10° NE visible
11 Aug 4.9 20:27:53 10° NW 20:31:44 35° NNE 20:33:05 27° ENE visible
11 Aug 5.9 22:07:24 10° WNW 22:08:43 19° WNW 22:08:43 19° WNW visible
12 Aug 5.7 18:42:38 10° NW 18:45:55 22° N 18:49:12 10° ENE visible
12 Aug 4.5 20:22:21 10° NW 20:26:18 41° NNE 20:27:28 33° ENE visible
12 Aug 6.0 22:01:59 10° WNW 22:03:06 17° WNW 22:03:06 17° WNW visible
13 Aug 5.6 18:37:13 10° NW 18:40:34 23° N 18:43:55 10° ENE visible
13 Aug 4.2 20:16:49 10° NW 20:20:52 50° NNE 20:21:53 40° ENE visible
13 Aug 6.2 21:56:38 10° WNW 21:57:30 15° WNW 21:57:30 15° WNW visible
14 Aug 3.8 20:11:16 10° NW 20:15:24 63° NNE 20:16:20 47° E visible
14 Aug 6.3 21:51:23 10° WNW 21:51:58 13° W 21:51:58 13° W visible
15 Aug 3.5 20:05:45 10° NW 20:09:55 80° NE 20:10:49 53° ESE visible
15 Aug 6.5 21:46:16 10° W 21:46:27 11° W 21:46:27 11° W visible
16 Aug 3.5 20:00:14 10° WNW 20:04:23 79° SW 20:05:21 51° SE visible
17 Aug 3.8 19:54:44 10° WNW 19:58:50 59° SW 19:59:57 42° SSE visible
18 Aug 4.3 19:49:17 10° WNW 19:53:14 44° SW 19:54:35 32° S visible
19 Aug 4.8 19:43:54 10° WNW 19:47:38 33° SW 19:49:18 24° S visible
20 Aug 5.3 19:38:36 10° WNW 19:41:59 25° SW 19:44:04 17° S visible
